sat.trackr.live / text

‹ back to catalog

INTELSAT 39 (IS-39)

NORAD 44476 · 2019-049B

PAYLOAD ACTIVE UNKNOWN

§ Identity

Operator
Country
ITSO
Launch date
2019-08-06
Launch site
FRGUI
Launch vehicle
Mass (kg)
RCS (m²)

Purposes: comms

External: N2YO · Heavens-Above · Gunter

§ Orbital elements

Epoch: 2026-05-25T04:02:15.571392Z

Period
1,436.11 min
Inclination
0.0204°
Eccentricity
0.0000631
Mean motion
1.00271163 rev/d
Perigee alt
35,784.1 km
Apogee alt
35,789.4 km
Semi-major
42,164.9 km
B*
0.0000e+0
RAAN
301.1452°
Arg perigee
11.0595°
Mean anomaly
53.0668°
Rev number
2,489

§ Raw data

INTELSAT 39 (IS-39)1 44476U 19049B   26145.16823578  .00000031  00000+0  00000+0 0  99982 44476   0.0204 301.1452 0000631  11.0595  53.0668  1.00271163 24892

JSON: /api/v1/satellites/44476 · /tle

For live sub-satellite position, see the globe view (requires WebGL).

§ Visibility from observer

Set your observer location to see the next 7 days of passes ≥ 10°. The values pass through the URL so the page stays shareable.

No JS? Fill the form by hand. The geolocation button needs JavaScript.